Regional Weather Roundup
Issued by NWS Albany, NY

Home | Current Version | Previous Version | Text Only | Print | Product List | Glossary On
Versions: 1 2 3 4 5 6 7 8 9 10 11 12 13 14 15 16 17 18 19 20 21 22 23 24 25 26 27 28 29 30 31 32 33 34 35 36 37 38 39 40 41 42 43 44 45 46 47 48 49 50
000
ASUS41 KALY 230010
RWRALY

NEW YORK STATE HOURLY WEATHER ROUNDUP
NATIONAL WEATHER SERVICE ALBANY NY
800 PM EDT FRI SEP 22 2017

NOTE: "FAIR" INDICATES FEW OR NO CLOUDS BELOW 12,000 FEET WITH NO
SIGNIFICANT WEATHER AND/OR NO OBSTRUCTIONS TO VISIBILITY.

NYZ032-033-038>043-046>054-057>066-NYZ062>081-082-084-230100-
EAST


CITY           SKY/WX    TMP DP  RH WIND       PRES   REMARKS
ALBANY         PTCLDY    68  52  56 NW6       30.05R
GLENS FALLS    CLEAR     57  52  83 CALM      30.06R
POUGHKEEPSIE   CLEAR     71  48  43 NE3       30.00R
NEWBURGH       PTCLDY    73  52  46 NE14      30.02R
MONTGOMERY     CLEAR     66  55  67 N6        30.00R
WHITE PLAINS   PTCLDY    73  52  47 N15       29.97R
ISLIP          MOCLDY    74  59  59 N16       29.93R
NEW YORK CITY  MOCLDY    77  56  48 N12G20    29.95R
CENTRAL PARK   PTCLDY    77  55  46 VRB6      29.99R
$$

NYZ005>009-017-018-044>046-055-056-230100-
CENTRAL


CITY           SKY/WX    TMP DP  RH WIND       PRES   REMARKS
FULTON         CLEAR     64  59  83 W3        30.08R
SYRACUSE       PTCLDY    69  59  70 W7        30.06R
ROME           CLEAR     65  61  87 N3        30.07R
ELMIRA         CLEAR     65  61  87 SE3       30.08S
BINGHAMTON     CLEAR     67  58  72 N9        30.10R
MONTICELLO     CLEAR     68  49  50 N8        30.07R
$$

NYZ026>034-041>043-087-230100-
NORTH


CITY           SKY/WX    TMP DP  RH WIND       PRES   REMARKS
WATERTOWN      CLEAR     63  58  83 CALM      30.08R
FORT DRUM      NOT AVBL
OGDENSBURG     FAIR      62  58  88 CALM      30.08R
MASSENA        CLEAR     62  58  86 CALM      30.08S
SARANAC LAKE   CLEAR     57  48  72 CALM      30.12R
PLATTSBURGH    CLEAR     62  57  83 CALM      30.07R
$$

NYZ001>004-010>016-019>021-085-230100-
WEST


CITY           SKY/WX    TMP DP  RH WIND       PRES   REMARKS
NIAGARA FALLS  CLEAR     70  58  65 CALM      30.10R
BUFFALO        PTCLDY    73  54  51 NE5       30.10S
DUNKIRK        CLEAR     63  61  93 S3        30.10S
JAMESTOWN      CLEAR     69  61  75 N6        30.15R
WELLSVILLE     CLEAR     68  54  60 N5        30.16R
ROCHESTER      PTCLDY    67  53  61 CALM      30.11R
PENN YAN       CLEAR     61  56  83 CALM      30.11R
$$

             KEY
       WCI = WIND CHILL INDEX
       VSB = VISIBILITY
       HX  = HEAT INDEX
$$



USA.gov is the U.S. government's official web portal to all federal, state and local government web resources and services.